QPF
0.03 0.03 0.04 0.04 0.05 0.07 0.05 0.04 0.03 0.02 0.02 0.02 0.02 0.02 0.03 0.03 0.02 0.02 0.01 0.02 0.01 0.01 0.01 0.01 0.01 0.01 0.01 0.01 0.02 0.03 0.03 0.03 0.03 0.02 0.02 0.03 0.04 0.03 0.02 0.02 0.02 0.02 0.03
0.04 0.04 0.05 0.05 0.04 0.04 0.03 0.03 0.02 0.02 0.02 0.02 0.02 0.02 0.02 0.02 0.02 0.01 0.01 0.00 0.00 0.00 0.00 0.01 0.02 0.02 0.01 0.02 0.03 0.03 0.04 0.04 0.03 0.03 0.03 0.03 0.04 0.04 0.03 0.03 0.02 0.02 0.02
0.06 0.08 0.07 0.05 0.04 0.04 0.03 0.02 0.02 0.02 0.02 0.02 0.02 0.01 0.02 0.02 0.02 0.01 0.01 0.00 0.01 0.00 0.00 0.01 0.01 0.03 0.03 0.03 0.03 0.03 0.04 0.04 0.04 0.05 0.03 0.03 0.04 0.05 0.04 0.03 0.03 0.03 0.04
0.07 0.09 0.07 0.05 0.04 0.04 0.03 0.03 0.02 0.02 0.03 0.03 0.03 0.02 0.02 0.02 0.01 0.01 0.01 0.00 0.00 0.00 0.00 0.01 0.02 0.04 0.08 0.06 0.03 0.02 0.03 0.04 0.05 0.05 0.04 0.03 0.04 0.06 0.05 0.04 0.04 0.03 0.04
0.09 0.12 0.10 0.06 0.06 0.05 0.04 0.03 0.02 0.02 0.02 0.02 0.02 0.02 0.02 0.02 0.01 0.01 0.01 0.01 0.01 0.01 0.01 0.01 0.02 0.04 0.09 0.08 0.05 0.04 0.02 0.02 0.02 0.02 0.03 0.02 0.03 0.04 0.04 0.03 0.03 0.03 0.03
0.11 0.13 0.13 0.08 0.07 0.05 0.03 0.03 0.02 0.02 0.02 0.02 0.02 0.02 0.02 0.01 0.02 0.02 0.02 0.01 0.01 0.01 0.01 0.01 0.02 0.02 0.04 0.04 0.03 0.02 0.01 0.01 0.01 0.01 0.01 0.02 0.02 0.02 0.02 0.03 0.03 0.02 0.02
0.10 0.13 0.14 0.12 0.10 0.07 0.05 0.05 0.03 0.03 0.03 0.03 0.02 0.03 0.02 0.01 0.02 0.02 0.03 0.03 0.02 0.01 0.01 0.01 0.01 0.01 0.01 0.01 0.01 0.01 0.01 0.01 0.01 0.00 0.00 0.00 0.01 0.01 0.01 0.02 0.02 0.01 0.01
0.08 0.09 0.12 0.13 0.14 0.12 0.11 0.10 0.06 0.05 0.04 0.04 0.04 0.03 0.03 0.02 0.03 0.04 0.04 0.03 0.03 0.03 0.03 0.02 0.02 0.02 0.01 0.01 0.01 0.00 0.00 0.00 0.00 0.00 0.00 0.00 0.00 0.01 0.01 0.01 0.01 0.01 0.01
0.05 0.08 0.08 0.08 0.08 0.10 0.12 0.14 0.09 0.05 0.04 0.04 0.04 0.05 0.04 0.03 0.06 0.06 0.06 0.04 0.04 0.03 0.04 0.03 0.03 0.02 0.01 0.01 0.01 0.01 0.00 0.00 0.00 0.00 0.00 0.00 0.00 0.01 0.01 0.01 0.01 0.01 0.01
0.03 0.03 0.03 0.05 0.06 0.09 0.13 0.10 0.08 0.06 0.04 0.05 0.06 0.09 0.11 0.10 0.11 0.09 0.07 0.04 0.04 0.02 0.01 0.01 0.01 0.00 0.00 0.00 0.01 0.01 0.01 0.01 0.01 0.01 0.01 0.02 0.02 0.02 0.02 0.01 0.01 0.01 0.01
0.02 0.02 0.04 0.08 0.11 0.11 0.15 0.12 0.07 0.05 0.05 0.07 0.10 0.09 0.08 0.09 0.09 0.08 0.07 0.05 0.05 0.02 0.01 0.00 0.01 0.01 0.01 0.01 0.01 0.02 0.02 0.02 0.02 0.02 0.02 0.02 0.03 0.03 0.02 0.01 0.02 0.01 0.01
0.02 0.02 0.07 0.14 0.11 0.10 0.08 0.06 0.05 0.04 0.04 0.06 0.08 0.11 0.13 0.10 0.08 0.09 0.10 0.08 0.04 0.02 0.01 0.01 0.01 0.02 0.02 0.02 0.02 0.02 0.03 0.03 0.03 0.03 0.03 0.03 0.03 0.03 0.02 0.02 0.03 0.03 0.03
0.03 0.02 0.04 0.06 0.05 0.04 0.04 0.02 0.02 0.03 0.04 0.05 0.07 0.07 0.07 0.09 0.08 0.08 0.08 0.07 0.05 0.03 0.02 0.02 0.02 0.02 0.02 0.03 0.03 0.04 0.04 0.04 0.04 0.03 0.04 0.05 0.06 0.06 0.06 0.05 0.05 0.04 0.02
0.02 0.02 0.02 0.02 0.02 0.03 0.04 0.04 0.03 0.02 0.02 0.02 0.03 0.05 0.05 0.04 0.04 0.04 0.04 0.04 0.04 0.03 0.02 0.02 0.02 0.02 0.02 0.02 0.03 0.03 0.03 0.03 0.03 0.04 0.05 0.07 0.09 0.09 0.08 0.06 0.05 0.03 0.03
0.02 0.01 0.01 0.02 0.02 0.03 0.03 0.04 0.03 0.03 0.03 0.02 0.02 0.02 0.01 0.01 0.02 0.03 0.03 0.02 0.02 0.02 0.02 0.02 0.01 0.01 0.01 0.01 0.01 0.02 0.03 0.03 0.04 0.05 0.06 0.06 0.06 0.06 0.05 0.04 0.03 0.03 0.03
0.02 0.01 0.01 0.02 0.03 0.03 0.03 0.02 0.03 0.03 0.03 0.02 0.02 0.01 0.01 0.01 0.01 0.02 0.02 0.02 0.02 0.03 0.03 0.02 0.02 0.02 0.02 0.03 0.03 0.04 0.04 0.04 0.05 0.05 0.05 0.04 0.03 0.03 0.02 0.02 0.03 0.04 0.03
0.02 0.01 0.01 0.02 0.02 0.02 0.01 0.01 0.01 0.01 0.02 0.01 0.02 0.02 0.01 0.01 0.01 0.02 0.02 0.03 0.04 0.04 0.03 0.03 0.03 0.03 0.02 0.02 0.02 0.03 0.03 0.03 0.03 0.03 0.03 0.03 0.02 0.02 0.02 0.02 0.03 0.03 0.02
0.02 0.01 0.01 0.01 0.02 0.02 0.02 0.02 0.02 0.01 0.01 0.01 0.02 0.03 0.02 0.02 0.02 0.03 0.04 0.04 0.05 0.05 0.04 0.03 0.03 0.03 0.04 0.04 0.04 0.03 0.02 0.02 0.03 0.03 0.04 0.03 0.03 0.03 0.03 0.02 0.02 0.02 0.02
0.01 0.01 0.01 0.02 0.02 0.02 0.03 0.03 0.03 0.03 0.03 0.03 0.03 0.04 0.05 0.04 0.04 0.05 0.04 0.04 0.03 0.03 0.03 0.03 0.03 0.03 0.03 0.03 0.03 0.04 0.04 0.04 0.04 0.04 0.03 0.02 0.03 0.03 0.03 0.02 0.02 0.02 0.02
0.02 0.02 0.01 0.02 0.02 0.01 0.02 0.03 0.04 0.04 0.05 0.08 0.10 0.09 0.08 0.06 0.05 0.04 0.04 0.04 0.03 0.03 0.05 0.04 0.03 0.03 0.03 0.03 0.03 0.03 0.03 0.04 0.04 0.05 0.04 0.04 0.05 0.04 0.04 0.04 0.04 0.04 0.04
0.03 0.01 0.01 0.01 0.02 0.02 0.02 0.03 0.04 0.05 0.08 0.08 0.10 0.11 0.11 0.10 0.08 0.06 0.05 0.04 0.04 0.03 0.03 0.05 0.05 0.04 0.04 0.03 0.02 0.02 0.03 0.04 0.04 0.05 0.05 0.05 0.05 0.05 0.06 0.05 0.05 0.05 0.05
0.05 0.03 0.02 0.02 0.03 0.03 0.03 0.04 0.05 0.05 0.03 0.04 0.09 0.13 0.14 0.12 0.10 0.08 0.07 0.06 0.06 0.05 0.05 0.05 0.05 0.05 0.04 0.04 0.03 0.04 0.04 0.04 0.04 0.05 0.06 0.06 0.07 0.07 0.07 0.06 0.06 0.06 0.06
0.08 0.07 0.06 0.05 0.05 0.04 0.04 0.04 0.04 0.03 0.02 0.02 0.05 0.09 0.10 0.08 0.07 0.07 0.07 0.07 0.06 0.06 0.05 0.04 0.04 0.04 0.04 0.05 0.05 0.06 0.07 0.07 0.06 0.06 0.06 0.07 0.08 0.07 0.07 0.07 0.06 0.06 0.05
0.08 0.07 0.07 0.08 0.07 0.05 0.05 0.05 0.05 0.05 0.05 0.05 0.05 0.05 0.06 0.06 0.05 0.05 0.04 0.03 0.03 0.03 0.03 0.03 0.03 0.03 0.04 0.05 0.06 0.07 0.07 0.07 0.07 0.06 0.07 0.08 0.08 0.07 0.06 0.05 0.05 0.05 0.05
0.07 0.06 0.07 0.08 0.08 0.08 0.09 0.09 0.09 0.08 0.07 0.07 0.06 0.06 0.06 0.05 0.05 0.06 0.06 0.04 0.03 0.02 0.02 0.02 0.03 0.03 0.04 0.04 0.05 0.06 0.06 0.05 0.04 0.04 0.05 0.05 0.06 0.06 0.05 0.05 0.05 0.06 0.06
0.05 0.06 0.07 0.09 0.11 0.10 0.08 0.07 0.08 0.07 0.07 0.06 0.06 0.05 0.06 0.07 0.06 0.05 0.04 0.03 0.03 0.04 0.03 0.04 0.05 0.05 0.05 0.05 0.05 0.07 0.07 0.06 0.05 0.05 0.04 0.03 0.03 0.03 0.03 0.03 0.04 0.04 0.05
MSLP
1012.83 1013.34 1013.84 1014.27 1014.60 1014.82 1014.94 1014.99 1015.00 1015.01 1015.06 1015.15 1015.28 1015.44 1015.60 1015.75 1015.87 1015.97 1016.06 1016.15 1016.25 1016.36 1016.49 1016.61 1016.70 1016.73 1016.69 1016.56 1016.34 1016.07 1015.75 1015.42 1015.10 1014.80 1014.53 1014.27 1014.00 1013.72 1013.39 1013.02 1012.63 1012.22 1011.84
1012.83 1013.36 1013.87 1014.31 1014.66 1014.91 1015.07 1015.17 1015.24 1015.31 1015.39 1015.51 1015.66 1015.82 1015.98 1016.14 1016.28 1016.41 1016.53 1016.65 1016.79 1016.93 1017.06 1017.18 1017.25 1017.26 1017.19 1017.04 1016.83 1016.57 1016.28 1016.00 1015.73 1015.49 1015.26 1015.02 1014.75 1014.43 1014.05 1013.61 1013.12 1012.61 1012.12
1012.85 1013.41 1013.93 1014.38 1014.75 1015.03 1015.24 1015.41 1015.54 1015.68 1015.82 1015.98 1016.15 1016.32 1016.48 1016.64 1016.78 1016.91 1017.04 1017.18 1017.32 1017.47 1017.60 1017.71 1017.77 1017.76 1017.68 1017.53 1017.33 1017.09 1016.84 1016.61 1016.39 1016.19 1016.00 1015.78 1015.52 1015.19 1014.78 1014.28 1013.73 1013.15 1012.57
1012.85 1013.45 1013.98 1014.45 1014.84 1015.16 1015.43 1015.66 1015.87 1016.08 1016.30 1016.51 1016.71 1016.90 1017.07 1017.21 1017.33 1017.45 1017.56 1017.68 1017.81 1017.95 1018.08 1018.17 1018.22 1018.21 1018.13 1017.99 1017.81 1017.60 1017.38 1017.19 1017.01 1016.85 1016.68 1016.49 1016.23 1015.90 1015.48 1014.97 1014.38 1013.76 1013.14
1012.82 1013.45 1014.01 1014.49 1014.90 1015.26 1015.58 1015.89 1016.19 1016.48 1016.78 1017.05 1017.30 1017.51 1017.68 1017.80 1017.90 1017.97 1018.05 1018.13 1018.24 1018.35 1018.46 1018.55 1018.60 1018.59 1018.52 1018.40 1018.23 1018.05 1017.86 1017.69 1017.53 1017.39 1017.24 1017.06 1016.82 1016.50 1016.09 1015.58 1015.01 1014.40 1013.78
1012.77 1013.41 1013.97 1014.47 1014.90 1015.30 1015.68 1016.06 1016.45 1016.84 1017.22 1017.57 1017.87 1018.10 1018.27 1018.37 1018.42 1018.45 1018.48 1018.52 1018.58 1018.67 1018.76 1018.84 1018.89 1018.89 1018.84 1018.74 1018.59 1018.42 1018.25 1018.08 1017.93 1017.79 1017.64 1017.47 1017.23 1016.93 1016.54 1016.07 1015.54 1014.97 1014.39
1012.72 1013.35 1013.91 1014.40 1014.85 1015.28 1015.72 1016.17 1016.65 1017.12 1017.59 1018.01 1018.36 1018.62 1018.79 1018.87 1018.89 1018.87 1018.84 1018.83 1018.85 1018.90 1018.98 1019.05 1019.11 1019.12 1019.09 1019.00 1018.87 1018.71 1018.53 1018.36 1018.20 1018.04 1017.88 1017.69 1017.46 1017.17 1016.82 1016.40 1015.92 1015.41 1014.89
1012.70 1013.31 1013.85 1014.33 1014.79 1015.24 1015.73 1016.25 1016.80 1017.36 1017.90 1018.39 1018.78 1019.06 1019.23 1019.29 1019.27 1019.21 1019.13 1019.07 1019.05 1019.08 1019.13 1019.20 1019.26 1019.29 1019.27 1019.20 1019.07 1018.91 1018.72 1018.53 1018.34 1018.16 1017.97 1017.76 1017.53 1017.25 1016.92 1016.55 1016.13 1015.68 1015.23
1012.77 1013.35 1013.85 1014.32 1014.78 1015.25 1015.77 1016.34 1016.95 1017.57 1018.16 1018.69 1019.12 1019.41 1019.58 1019.62 1019.57 1019.47 1019.35 1019.25 1019.20 1019.20 1019.24 1019.31 1019.37 1019.41 1019.40 1019.33 1019.21 1019.04 1018.84 1018.62 1018.40 1018.18 1017.96 1017.73 1017.48 1017.21 1016.90 1016.56 1016.19 1015.80 1015.39
1012.99 1013.51 1013.98 1014.42 1014.87 1015.35 1015.89 1016.48 1017.12 1017.78 1018.41 1018.96 1019.39 1019.69 1019.84 1019.86 1019.79 1019.66 1019.51 1019.39 1019.31 1019.29 1019.32 1019.38 1019.44 1019.48 1019.47 1019.41 1019.28 1019.10 1018.89 1018.65 1018.40 1018.15 1017.91 1017.66 1017.40 1017.13 1016.83 1016.51 1016.16 1015.79 1015.42
1013.35 1013.82 1014.24 1014.65 1015.08 1015.56 1016.10 1016.70 1017.35 1018.01 1018.63 1019.18 1019.60 1019.88 1020.01 1020.02 1019.92 1019.77 1019.61 1019.48 1019.39 1019.36 1019.38 1019.43 1019.48 1019.52 1019.50 1019.43 1019.30 1019.11 1018.89 1018.64 1018.38 1018.12 1017.86 1017.60 1017.34 1017.06 1016.77 1016.44 1016.10 1015.73 1015.36
1013.83 1014.24 1014.62 1015.00 1015.40 1015.86 1016.38 1016.97 1017.60 1018.23 1018.83 1019.34 1019.73 1019.98 1020.09 1020.08 1019.98 1019.82 1019.66 1019.52 1019.43 1019.40 1019.41 1019.45 1019.49 1019.51 1019.49 1019.40 1019.26 1019.07 1018.84 1018.60 1018.34 1018.09 1017.84 1017.59 1017.33 1017.06 1016.76 1016.43 1016.07 1015.69 1015.28
1014.36 1014.71 1015.04 1015.39 1015.76 1016.19 1016.69 1017.24 1017.83 1018.41 1018.96 1019.42 1019.77 1019.98 1020.07 1020.05 1019.95 1019.80 1019.65 1019.53 1019.45 1019.41 1019.42 1019.45 1019.47 1019.47 1019.42 1019.32 1019.17 1018.98 1018.76 1018.53 1018.29 1018.07 1017.85 1017.63 1017.39 1017.13 1016.84 1016.50 1016.11 1015.69 1015.25
1014.84 1015.13 1015.42 1015.73 1016.07 1016.47 1016.93 1017.44 1017.97 1018.50 1018.98 1019.39 1019.69 1019.88 1019.95 1019.93 1019.84 1019.72 1019.60 1019.50 1019.44 1019.41 1019.42 1019.43 1019.43 1019.40 1019.32 1019.20 1019.03 1018.84 1018.63 1018.42 1018.23 1018.04 1017.87 1017.70 1017.50 1017.27 1016.98 1016.63 1016.23 1015.77 1015.27
1015.17 1015.41 1015.66 1015.93 1016.25 1016.62 1017.04 1017.50 1017.98 1018.45 1018.87 1019.23 1019.49 1019.66 1019.73 1019.73 1019.67 1019.60 1019.52 1019.46 1019.42 1019.41 1019.41 1019.40 1019.37 1019.30 1019.19 1019.04 1018.85 1018.65 1018.46 1018.28 1018.13 1018.00 1017.88 1017.76 1017.61 1017.42 1017.15 1016.81 1016.39 1015.89 1015.35
1015.30 1015.49 1015.70 1015.94 1016.23 1016.57 1016.96 1017.38 1017.82 1018.24 1018.62 1018.94 1019.18 1019.34 1019.43 1019.47 1019.46 1019.44 1019.42 1019.40 1019.40 1019.40 1019.39 1019.36 1019.29 1019.18 1019.03 1018.84 1018.63 1018.42 1018.23 1018.08 1017.97 1017.89 1017.83 1017.77 1017.68 1017.53 1017.29 1016.97 1016.54 1016.03 1015.45
1015.22 1015.37 1015.54 1015.76 1016.03 1016.35 1016.72 1017.11 1017.52 1017.91 1018.26 1018.56 1018.80 1018.97 1019.09 1019.17 1019.22 1019.26 1019.30 1019.33 1019.36 1019.37 1019.35 1019.29 1019.19 1019.03 1018.83 1018.59 1018.36 1018.13 1017.95 1017.81 1017.73 1017.70 1017.69 1017.69 1017.65 1017.54 1017.35 1017.04 1016.63 1016.12 1015.53
1014.99 1015.09 1015.24 1015.44 1015.70 1016.01 1016.37 1016.75 1017.13 1017.50 1017.84 1018.13 1018.37 1018.57 1018.73 1018.85 1018.96 1019.06 1019.14 1019.22 1019.27 1019.28 1019.25 1019.16 1019.01 1018.80 1018.55 1018.28 1018.01 1017.77 1017.58 1017.45 1017.40 1017.40 1017.44 1017.48 1017.48 1017.42 1017.27 1017.00 1016.61 1016.12 1015.54
1014.70 1014.77 1014.90 1015.09 1015.34 1015.65 1015.99 1016.36 1016.72 1017.08 1017.40 1017.69 1017.94 1018.16 1018.34 1018.51 1018.66 1018.79 1018.92 1019.01 1019.07 1019.08 1019.02 1018.90 1018.70 1018.45 1018.16 1017.84 1017.55 1017.29 1017.10 1016.98 1016.94 1016.97 1017.04 1017.12 1017.17 1017.15 1017.03 1016.80 1016.45 1016.00 1015.45
1014.46 1014.51 1014.62 1014.81 1015.05 1015.35 1015.68 1016.02 1016.36 1016.70 1017.00 1017.28 1017.52 1017.73 1017.93 1018.11 1018.28 1018.43 1018.56 1018.65 1018.70 1018.68 1018.60 1018.44 1018.21 1017.92 1017.59 1017.25 1016.94 1016.68 1016.49 1016.39 1016.37 1016.42 1016.52 1016.62 1016.71 1016.72 1016.65 1016.46 1016.16 1015.75 1015.25
1014.35 1014.39 1014.50 1014.67 1014.90 1015.17 1015.47 1015.78 1016.08 1016.37 1016.63 1016.87 1017.08 1017.28 1017.45 1017.62 1017.77 1017.91 1018.01 1018.09 1018.10 1018.05 1017.93 1017.74 1017.48 1017.16 1016.82 1016.48 1016.17 1015.92 1015.74 1015.66 1015.67 1015.75 1015.87 1016.01 1016.12 1016.17 1016.14 1016.00 1015.75 1015.39 1014.95
1014.43 1014.46 1014.56 1014.70 1014.90 1015.13 1015.37 1015.62 1015.86 1016.08 1016.28 1016.46 1016.61 1016.76 1016.89 1017.01 1017.12 1017.21 1017.27 1017.30 1017.27 1017.18 1017.02 1016.80 1016.52 1016.19 1015.85 1015.52 1015.24 1015.02 1014.88 1014.83 1014.87 1014.98 1015.14 1015.31 1015.45 1015.54 1015.54 1015.44 1015.24 1014.94 1014.56
1014.66 1014.69 1014.76 1014.87 1015.02 1015.18 1015.35 1015.51 1015.66 1015.80 1015.91 1016.00 1016.08 1016.15 1016.21 1016.27 1016.32 1016.35 1016.35 1016.32 1016.24 1016.11 1015.92 1015.67 1015.38 1015.07 1014.75 1014.45 1014.20 1014.03 1013.93 1013.93 1014.01 1014.16 1014.35 1014.55 1014.72 1014.84 1014.88 1014.83 1014.67 1014.43 1014.10
1014.98 1014.99 1015.03 1015.09 1015.16 1015.24 1015.32 1015.38 1015.43 1015.47 1015.48 1015.49 1015.48 1015.47 1015.46 1015.45 1015.43 1015.40 1015.35 1015.26 1015.13 1014.96 1014.75 1014.49 1014.20 1013.90 1013.61 1013.36 1013.16 1013.03 1012.99 1013.03 1013.15 1013.34 1013.55 1013.78 1013.97 1014.12 1014.19 1014.16 1014.05 1013.85 1013.58
1015.27 1015.26 1015.25 1015.25 1015.24 1015.23 1015.21 1015.17 1015.13 1015.07 1015.00 1014.92 1014.85 1014.77 1014.70 1014.63 1014.56 1014.48 1014.38 1014.25 1014.09 1013.89 1013.66 1013.40 1013.12 1012.84 1012.58 1012.37 1012.21 1012.13 1012.12 1012.20 1012.35 1012.55 1012.78 1013.01 1013.22 1013.37 1013.46 1013.46 1013.38 1013.21 1012.99
1015.44 1015.39 1015.33 1015.26 1015.18 1015.08 1014.98 1014.86 1014.73 1014.60 1014.48 1014.35 1014.23 1014.12 1014.02 1013.92 1013.82 1013.71 1013.59 1013.44 1013.26 1013.04 1012.81 1012.55 1012.28 1012.02 1011.78 1011.59 1011.45 1011.39 1011.40 1011.48 1011.63 1011.82 1012.04 1012.26 1012.45 1012.60 1012.68 1012.70 1012.63 1012.50 1012.30
Thickness
5792 5789 5786 5783 5782 5779 5776 5774 5773 5771 5768 5766 5764 5762 5760 5759 5757 5755 5752 5751 5749 5747 5746 5745 5742 5741 5738 5735 5732 5728 5724 5720 5711 5708 5708 5706 5704 5702 5699 5696 5693 5690 5688
5791 5788 5785 5783 5781 5778 5776 5775 5773 5770 5768 5765 5763 5761 5759 5757 5756 5753 5751 5750 5747 5745 5744 5742 5740 5739 5735 5732 5729 5725 5722 5719 5712 5705 5703 5701 5699 5698 5695 5692 5689 5686 5684
5791 5786 5782 5780 5779 5776 5775 5774 5772 5769 5767 5764 5762 5759 5757 5756 5754 5752 5750 5748 5746 5744 5742 5740 5738 5735 5731 5729 5726 5723 5719 5716 5711 5705 5699 5697 5695 5693 5689 5687 5685 5682 5679
5788 5783 5780 5777 5777 5775 5774 5772 5771 5768 5765 5762 5760 5758 5757 5755 5753 5751 5749 5746 5744 5742 5740 5738 5736 5733 5729 5727 5724 5720 5716 5711 5707 5702 5696 5693 5690 5688 5685 5681 5678 5676 5674
5787 5781 5778 5777 5775 5773 5771 5770 5768 5766 5764 5761 5758 5756 5755 5753 5751 5748 5746 5744 5740 5738 5736 5734 5733 5731 5729 5725 5722 5717 5713 5707 5702 5696 5692 5688 5685 5682 5679 5677 5673 5670 5668
5784 5779 5777 5775 5773 5771 5768 5767 5765 5762 5761 5758 5756 5753 5752 5751 5750 5747 5744 5741 5738 5734 5732 5730 5729 5727 5725 5722 5719 5716 5711 5705 5698 5693 5688 5684 5683 5680 5677 5674 5668 5664 5660
5782 5778 5776 5773 5770 5769 5767 5764 5761 5759 5757 5754 5752 5750 5748 5747 5747 5744 5741 5737 5734 5731 5728 5725 5724 5722 5720 5717 5714 5711 5708 5705 5701 5695 5688 5685 5682 5679 5675 5670 5666 5663 5660
5779 5776 5774 5771 5768 5766 5764 5760 5757 5755 5752 5751 5748 5747 5744 5744 5742 5740 5737 5733 5730 5727 5724 5722 5719 5716 5715 5712 5709 5705 5702 5700 5697 5694 5690 5686 5683 5679 5674 5671 5666 5661 5658
5776 5773 5771 5769 5766 5762 5759 5756 5754 5751 5748 5747 5745 5743 5740 5739 5737 5734 5731 5727 5724 5722 5720 5718 5716 5712 5711 5707 5703 5699 5696 5694 5693 5690 5687 5683 5680 5676 5672 5665 5660 5655 5651
5774 5772 5769 5767 5763 5759 5756 5753 5751 5748 5745 5744 5741 5739 5737 5734 5732 5729 5726 5722 5718 5716 5714 5713 5712 5709 5706 5703 5698 5693 5689 5687 5685 5683 5680 5677 5674 5671 5668 5663 5658 5652 5648
5772 5769 5766 5763 5759 5756 5752 5749 5746 5743 5740 5738 5736 5734 5731 5729 5727 5724 5721 5718 5714 5711 5709 5707 5706 5704 5701 5697 5694 5690 5687 5683 5679 5676 5673 5670 5667 5664 5662 5659 5656 5652 5646
5766 5763 5759 5757 5755 5753 5747 5744 5741 5738 5733 5731 5728 5725 5724 5723 5721 5718 5715 5712 5711 5707 5704 5703 5701 5698 5694 5691 5688 5686 5682 5678 5673 5669 5665 5662 5660 5657 5656 5654 5652 5649 5646
5758 5755 5753 5751 5749 5747 5743 5738 5735 5732 5728 5724 5721 5718 5717 5716 5714 5712 5709 5707 5704 5701 5699 5697 5694 5691 5687 5684 5682 5679 5675 5670 5666 5661 5658 5656 5654 5652 5650 5648 5645 5642 5640
5750 5747 5746 5743 5741 5738 5736 5733 5729 5726 5723 5720 5716 5714 5711 5709 5707 5705 5702 5699 5697 5694 5691 5688 5685 5683 5680 5677 5674 5670 5667 5664 5660 5657 5654 5651 5648 5645 5642 5640 5636 5634 5630
5742 5740 5738 5736 5734 5730 5728 5726 5724 5723 5721 5717 5714 5711 5706 5703 5703 5700 5696 5693 5690 5687 5682 5678 5675 5672 5670 5667 5664 5662 5660 5656 5653 5650 5647 5643 5640 5638 5635 5633 5629 5626 5623
5734 5732 5731 5729 5726 5723 5720 5717 5717 5716 5715 5713 5711 5707 5705 5702 5699 5695 5691 5688 5684 5680 5674 5670 5667 5664 5662 5660 5657 5654 5652 5649 5647 5644 5640 5637 5634 5631 5628 5626 5623 5620 5618
5728 5726 5724 5722 5719 5716 5714 5711 5707 5706 5705 5704 5702 5700 5697 5694 5691 5687 5683 5679 5675 5671 5667 5664 5661 5658 5656 5653 5650 5648 5645 5644 5641 5637 5633 5630 5627 5624 5621 5619 5616 5614 5612
5723 5720 5718 5715 5713 5710 5708 5705 5702 5698 5695 5694 5692 5690 5688 5686 5682 5678 5674 5669 5664 5661 5660 5658 5655 5652 5650 5647 5644 5641 5639 5637 5634 5631 5627 5624 5622 5619 5616 5613 5610 5608 5606
5715 5713 5711 5709 5706 5703 5701 5699 5696 5693 5689 5686 5683 5681 5679 5676 5673 5669 5665 5662 5659 5656 5654 5651 5649 5646 5644 5642 5639 5635 5632 5630 5627 5624 5622 5619 5616 5613 5610 5607 5605 5603 5600
5706 5706 5704 5701 5698 5695 5693 5690 5687 5684 5681 5679 5676 5674 5670 5666 5663 5660 5657 5656 5654 5651 5649 5646 5644 5641 5638 5636 5632 5629 5626 5623 5621 5618 5616 5613 5611 5608 5605 5602 5599 5596 5594
5697 5697 5696 5692 5689 5687 5685 5682 5679 5676 5674 5672 5671 5669 5665 5662 5659 5656 5652 5649 5647 5645 5642 5640 5638 5635 5632 5629 5626 5623 5620 5617 5615 5612 5610 5607 5605 5602 5599 5596 5594 5591 5589
5689 5687 5685 5683 5681 5679 5677 5675 5672 5669 5667 5665 5662 5660 5657 5655 5653 5650 5647 5644 5641 5638 5636 5633 5630 5628 5625 5622 5618 5615 5613 5610 5607 5604 5602 5600 5598 5596 5593 5590 5587 5585 5583
5679 5678 5676 5674 5672 5671 5668 5666 5664 5661 5659 5657 5655 5652 5649 5647 5645 5643 5640 5638 5635 5631 5628 5625 5622 5620 5618 5614 5611 5608 5605 5602 5600 5597 5594 5592 5591 5589 5586 5583 5581 5578 5576
5672 5670 5668 5666 5664 5662 5660 5658 5656 5654 5651 5649 5647 5644 5641 5639 5637 5635 5632 5630 5627 5624 5621 5617 5614 5612 5609 5606 5603 5600 5597 5594 5592 5589 5587 5584 5583 5581 5579 5576 5574 5571 5570
5664 5662 5660 5658 5656 5654 5652 5650 5647 5645 5643 5641 5639 5637 5634 5632 5629 5627 5624 5621 5619 5616 5613 5609 5606 5603 5600 5597 5595 5592 5590 5587 5585 5582 5579 5577 5575 5573 5571 5568 5566 5564 5562
5656 5654 5652 5651 5649 5647 5644 5642 5639 5637 5635 5634 5632 5630 5627 5625 5622 5620 5617 5614 5610 5607 5605 5601 5598 5594 5592 5589 5586 5584 5581 5579 5577 5575 5572 5569 5567 5565 5563 5561 5559 5557 5555